Historia de Miami, FL

Miércoles, Enero 11, 2017 — View Current Conditions

Jump to Data:

Date:
Airport Code:
Recently Viewed Airport Codes: KMIA
Daily Summary
  Actual Average Record
Temperature
Temperatura media 73° F / 23° C 68° F / 20° C  
Temperatura máxima 79° F / 26° C 76° F / 24° C 84° F / 28° C (2000)
Temperatura mínima 67° F / 19° C 60° F / 16° C 36° F / 2° C (2010)
Degree Days
Grados día de calefacción 0 2  
Month to date heating degree days 6 22  
Since 1 July heating degree days 6 59  
Cooling Degree Days 8 5  
Month to date cooling degree days 93 55  
Year to date cooling degree days 93 55  
Growing Degree Days 22 (Base 50)    
Moisture
Punto de rocío 60° F / 16° C    
Average Humidity 66    
Maximum Humidity 87    
Minimum Humidity 45    
Precipitación
Precipitación 0.03 pul / 0.76 cm 0.05 pul / 1.27 cm 2.40 pul / 6.10 cm (1973)
Month to date precipitation 1.48 0.56  
Year to date precipitation 1.48 0.56  
Nieve
Nieve 0.00 pul / 0.00 cm pul / cm pul / cm ()
Month to date snowfall 0.0  
Since 1 July snowfall 0.0  
Grosos de nieve 0.00 pul / 0.00 cm    
Presión al nivel del mar
Presión al nivel del mar 30.28 pul / 1025 hPa    
Viento
Velocidad del viento 12 mph / 20 km/h (Este)    
Velocidad máxima del viento 22 mph / 35 km/h    
Max Gust Speed 27 mph / 43 km/h    
Visibilidad 10 Millas / 16 Kilómetros    
Eventos Lluvia    
T = Trace of Precipitation, MM = Missing Value Source: NWS Daily Summary

Mostrar METARS completo

(help) - Comma Delimited File

Hourly Observations

Hora(EST) Temperatura Punto de rocío Humedad Presión al nivel del mar Visibilidad Dirección del viento Velocidad del viento Velocidad de ráfagas Precipitación Eventos Condiciones
12:53 AM 71.1° F / 21.7° C 59.0° F / 15.0° C 66% 30.30 pul / 1026.0 hPa 10.0 Millas / 16.1 Kilómetros Este 13.8 mph / 22.2 km/h - 0.00 pul / 0.0 cm   Muy nublado
1:53 AM 71.1° F / 21.7° C 57.9° F / 14.4° C 63% 30.30 pul / 1026.0 hPa 10.0 Millas / 16.1 Kilómetros Este 10.4 mph / 16.7 km/h - N/A   Muy nublado
2:53 AM 70.0° F / 21.1° C 57.9° F / 14.4° C 65% 30.30 pul / 1025.9 hPa 10.0 Millas / 16.1 Kilómetros Este 10.4 mph / 16.7 km/h - 0.00 pul / 0.0 cm Lluvia Lluvia débil
3:53 AM 66.9° F / 19.4° C 57.0° F / 13.9° C 70% 30.29 pul / 1025.7 hPa 10.0 Millas / 16.1 Kilómetros Este 8.1 mph / 13.0 km/h - 0.00 pul / 0.0 cm   Muy nublado
4:53 AM 68.0° F / 20.0° C 60.1° F / 15.6° C 76% 30.29 pul / 1025.5 hPa 7.0 Millas / 11.3 Kilómetros Este 12.7 mph / 20.4 km/h - 0.01 pul / 0.3 cm Lluvia Lluvia débil
5:53 AM 66.9° F / 19.4° C 62.1° F / 16.7° C 84% 30.30 pul / 1025.8 hPa 10.0 Millas / 16.1 Kilómetros Sin viento Sin viento - 0.00 pul / 0.0 cm   Nublado
6:53 AM 66.9° F / 19.4° C 62.1° F / 16.7° C 84% 30.30 pul / 1026.0 hPa 10.0 Millas / 16.1 Kilómetros NNE 5.8 mph / 9.3 km/h - 0.01 pul / 0.3 cm   Muy nublado
7:53 AM 69.1° F / 20.6° C 61.0° F / 16.1° C 75% 30.31 pul / 1026.4 hPa 10.0 Millas / 16.1 Kilómetros Este 13.8 mph / 22.2 km/h - 0.00 pul / 0.0 cm   Muy nublado
8:53 AM 73.9° F / 23.3° C 62.1° F / 16.7° C 66% 30.32 pul / 1026.6 hPa 10.0 Millas / 16.1 Kilómetros ENE 12.7 mph / 20.4 km/h 18.4 mph / 29.6 km/h 0.00 pul / 0.0 cm   Muy nublado
9:53 AM 75.9° F / 24.4° C 61.0° F / 16.1° C 60% 30.33 pul / 1027.0 hPa 10.0 Millas / 16.1 Kilómetros Este 15.0 mph / 24.1 km/h - N/A   Muy nublado
10:53 AM 75.0° F / 23.9° C 59.0° F / 15.0° C 57% 30.32 pul / 1026.7 hPa 10.0 Millas / 16.1 Kilómetros ENE 13.8 mph / 22.2 km/h 24.2 mph / 38.9 km/h N/A   Muy nublado
11:53 AM 79.0° F / 26.1° C 55.9° F / 13.3° C 45% 30.30 pul / 1025.9 hPa 10.0 Millas / 16.1 Kilómetros Este 19.6 mph / 31.5 km/h - N/A   Nubes dispersas
12:53 PM 78.1° F / 25.6° C 57.0° F / 13.9° C 48% 30.27 pul / 1025.0 hPa 10.0 Millas / 16.1 Kilómetros Este 16.1 mph / 25.9 km/h 26.5 mph / 42.6 km/h N/A   Nubes dispersas
1:53 PM 78.1° F / 25.6° C 59.0° F / 15.0° C 52% 30.26 pul / 1024.5 hPa 10.0 Millas / 16.1 Kilómetros Este 18.4 mph / 29.6 km/h 25.3 mph / 40.7 km/h N/A   Muy nublado
2:53 PM 77.0° F / 25.0° C 60.1° F / 15.6° C 56% 30.25 pul / 1024.3 hPa 10.0 Millas / 16.1 Kilómetros Este 17.3 mph / 27.8 km/h 23.0 mph / 37.0 km/h N/A   Muy nublado
3:53 PM 75.9° F / 24.4° C 59.0° F / 15.0° C 56% 30.25 pul / 1024.1 hPa 10.0 Millas / 16.1 Kilómetros ENE 15.0 mph / 24.1 km/h - N/A   Muy nublado
4:53 PM 75.9° F / 24.4° C 59.0° F / 15.0° C 56% 30.25 pul / 1024.1 hPa 10.0 Millas / 16.1 Kilómetros ENE 11.5 mph / 18.5 km/h - N/A   Muy nublado
5:53 PM 73.0° F / 22.8° C 62.1° F / 16.7° C 68% 30.25 pul / 1024.3 hPa 10.0 Millas / 16.1 Kilómetros ENE 10.4 mph / 16.7 km/h - 0.00 pul / 0.0 cm   Muy nublado
6:53 PM 73.0° F / 22.8° C 63.0° F / 17.2° C 71% 30.26 pul / 1024.6 hPa 10.0 Millas / 16.1 Kilómetros ENE 12.7 mph / 20.4 km/h - N/A   Nubes dispersas
7:53 PM 73.0° F / 22.8° C 62.1° F / 16.7° C 68% 30.27 pul / 1024.8 hPa 10.0 Millas / 16.1 Kilómetros NE 5.8 mph / 9.3 km/h - 0.00 pul / 0.0 cm   Muy nublado
8:53 PM 72.0° F / 22.2° C 63.0° F / 17.2° C 73% 30.28 pul / 1025.3 hPa 10.0 Millas / 16.1 Kilómetros ESE 11.5 mph / 18.5 km/h 21.9 mph / 35.2 km/h 0.00 pul / 0.0 cm   Nublado
9:53 PM 72.0° F / 22.2° C 63.0° F / 17.2° C 73% 30.28 pul / 1025.3 hPa 10.0 Millas / 16.1 Kilómetros Este 15.0 mph / 24.1 km/h - 0.01 pul / 0.3 cm   Nublado
10:53 PM 72.0° F / 22.2° C 63.0° F / 17.2° C 73% 30.27 pul / 1025.1 hPa 10.0 Millas / 16.1 Kilómetros Este 10.4 mph / 16.7 km/h - 0.00 pul / 0.0 cm   Muy nublado
11:53 PM 73.0° F / 22.8° C 59.0° F / 15.0° C 61% 30.27 pul / 1024.9 hPa 10.0 Millas / 16.1 Kilómetros Este 15.0 mph / 24.1 km/h - N/A   Muy nublado